Location: Hohe Wand Kleine Kanzel
(47.8330°N, 16.0170°E)
Time: 16:23:58
(UTC+02:00)

Courier 1B Rocket - Pass Details

Date: 02 August 2021
Orbit: 920 x 1202 km, 28.3° (Epoch: 23 September)

Event Time Altitude Azimuth Distance (km) Brightness Sun altitude
Rises 04:09:32 0° 233° (SW) 3,709 - -12.2°
Reaches altitude 10° 04:14:05 10° 206° (SSW) 2,698 - -11.7°
Exits shadow 04:14:48 11° 199° (SSW) 2,607 6.7 -11.6°
Maximum altitude 04:16:35 12° 183° (S) 2,497 6.7 -11.4°
Drops below altitude 10° 04:19:02 10° 159° (SSE) 2,645 7.1 -11.1°
Sets 04:23:23 0° 131° (SE) 3,558 8.0 -10.5°
